GOES 16 [S]

Last updated on Fri Dec 22 2017 00:18:50 GMT+0000 (Coordinated Universal Time)

1 41866U 16071A 17354.95967893 -.00000240 00000-0 00000+0 0 9992 2 41866 0.0071 106.0716 0001860 305.6418 308.3109 1.00273841 4024

Satellite not in orbit

GOES 16 [S]